Weather History for Joplin, MO

Change the Weather History Date:

Friday, May 17, 2013

  Actual Average Record
Temperature  
Mean Temperature 70 °F 67 °F  
Max Temperature 81 °F 78 °F 89 °F (2001)
Min Temperature 58 °F 57 °F 40 °F (1973)
Degree Days  
Heating Degree Days 0 2  
Month to date heating degree days 136 49  
Since 1 July heating degree days 4240 4052  
Cooling Degree Days 5 4  
Month to date cooling degree days 30 52  
Year to date cooling degree days 60 106  
Growing Degree Days 19 (Base 50)    
Moisture  
Dew Point 61 °F    
Average Humidity 77    
Maximum Humidity 100    
Minimum Humidity 54    
Precipitation  
Precipitation 0.00 in 0.18 in 1.82 in (2002)
Month to date precipitation 2.04 3.22  
Year to date precipitation 16.54 15.46  
Snow  
Snow 0.00 in - - ()
Month to date snowfall 0.0  
Snow Depth 0.00 in    
Sea Level Pressure  
Sea Level Pressure 29.89 in    
Wind  
Wind Speed 3 mph (SE)    
Max Wind Speed 10 mph    
Max Gust Speed 25 mph    
Visibility 7 miles    
Events Fog    
T = Trace of Precipitation, MM = Missing Value Source: NWS Daily Summary

Daily Weather History Graph

Daily Weather History Graph

Search for Another Location

Airport:

Trip Planner

Search our weather history database for the weather conditions in past years. The results will help you decide how hot, cold, wet, or windy it might be!

Date:

Astronomy

May. 17, 2013 Rise Set
Actual Time 6:07 AM CDT 8:21 PM CDT
Civil Twilight 5:38 AM CDT 8:50 PM CDT
Nautical Twilight 5:02 AM CDT 9:26 PM CDT
Astronomical Twilight 4:23 AM CDT 10:06 PM CDT
Moon 12:37 PM CDT (5/17) 1:17 AM CDT (5/17)
Length of Visible Light 15h 12m
Length of Day
14h 13m
Waxing Crescent, 45% of the Moon is Illuminated
May 17
Waxing Crescent
May 17
First Quarter
May 24
Full
May 31
Last Quarter
Jun 8
New

Hourly Weather History & Observations

Time (CDT) Temp. Dew Point Humidity Pressure Visibility Wind Dir Wind Speed Gust Speed Precip Events Conditions
12:53 AM 61.0 °F 59.0 °F 93% 29.87 in 10.0 mi ESE 4.6 mph - N/A   Clear
1:53 AM 59.0 °F 57.9 °F 96% 29.86 in 6.0 mi ESE 3.5 mph - N/A   Clear
2:53 AM 59.0 °F 57.9 °F 96% 29.86 in 5.0 mi East 5.8 mph - N/A   Partly Cloudy
3:02 AM 60.8 °F 59.0 °F 94% 29.87 in 2.5 mi ESE 5.8 mph - N/A   Mostly Cloudy
3:11 AM 60.8 °F 59.0 °F 94% 29.87 in 1.0 mi ESE 5.8 mph - N/A   Mostly Cloudy
3:20 AM 60.8 °F 59.0 °F 94% 29.87 in 0.8 mi SE 3.5 mph - N/A   Mist
3:39 AM 60.8 °F 59.0 °F 94% 29.87 in 0.5 mi ESE 5.8 mph - 0.01 in Fog Fog
3:53 AM 60.1 °F 59.0 °F 96% 29.86 in 0.5 mi SSE 4.6 mph - 0.01 in Fog Fog
4:19 AM 60.8 °F 59.0 °F 94% 29.88 in 0.8 mi SE 3.5 mph - N/A   Mist
4:53 AM 60.1 °F 60.1 °F 100% 29.87 in 1.0 mi Calm Calm - N/A   Mist
5:12 AM 60.8 °F 60.8 °F 100% 29.89 in 3.0 mi SSE 3.5 mph - N/A   Overcast
5:27 AM 60.8 °F 60.8 °F 100% 29.89 in 4.0 mi Calm Calm - N/A   Overcast
5:53 AM 60.1 °F 60.1 °F 100% 29.88 in 5.0 mi ESE 3.5 mph - N/A   Overcast
6:44 AM 60.8 °F 60.8 °F 100% 29.92 in 5.0 mi Calm Calm - N/A   Overcast
6:53 AM 61.0 °F 60.1 °F 97% 29.90 in 5.0 mi SSE 3.5 mph - N/A   Overcast
7:12 AM 60.8 °F 60.8 °F 100% 29.92 in 6.0 mi SSE 4.6 mph - N/A   Overcast
7:23 AM 62.6 °F 60.8 °F 94% 29.92 in 6.0 mi SSE 3.5 mph - N/A   Overcast
7:53 AM 63.0 °F 62.1 °F 97% 29.91 in 7.0 mi Calm Calm - N/A   Overcast
8:33 AM 64.4 °F 62.6 °F 94% 29.94 in 8.0 mi South 3.5 mph - N/A   Mostly Cloudy
8:53 AM 66.0 °F 62.1 °F 87% 29.93 in 7.0 mi Calm Calm - N/A   Overcast
9:53 AM 69.1 °F 63.0 °F 81% 29.93 in 10.0 mi Calm Calm - N/A   Mostly Cloudy
10:00 AM 69.8 °F 62.6 °F 78% 29.95 in 10.0 mi Calm Calm - N/A   Mostly Cloudy
10:53 AM 70.0 °F - N/A% 29.93 in 10.0 mi Calm Calm - N/A   Overcast
11:53 AM 72.0 °F 61.0 °F 68% 29.92 in 10.0 mi North - - N/A   Overcast
12:53 PM 73.9 °F 60.1 °F 62% 29.90 in - Calm Calm - N/A   Scattered Clouds
1:53 PM 78.1 °F 61.0 °F 56% 29.90 in 10.0 mi Calm Calm - N/A   Mostly Cloudy
2:53 PM 78.1 °F 60.1 °F 54% 29.89 in 10.0 mi ENE 4.6 mph - N/A   Mostly Cloudy
3:53 PM 79.0 °F 61.0 °F 54% 29.88 in 10.0 mi Calm Calm - N/A   Scattered Clouds
4:53 PM 78.1 °F 61.0 °F 56% 29.86 in 10.0 mi ENE 3.5 mph - N/A   Mostly Cloudy
5:53 PM 79.0 °F 62.1 °F 56% 29.86 in 10.0 mi ESE 5.8 mph - N/A   Scattered Clouds
6:53 PM 75.9 °F 62.1 °F 62% 29.86 in 10.0 mi SE 3.5 mph - N/A   Partly Cloudy
7:53 PM 73.9 °F 61.0 °F 64% 29.86 in 10.0 mi SE 4.6 mph - N/A   Clear
8:53 PM 70.0 °F 61.0 °F 73% 29.87 in 10.0 mi East 3.5 mph - N/A   Mostly Cloudy
9:53 PM 70.0 °F 62.1 °F 76% 29.89 in 10.0 mi ESE 5.8 mph - N/A   Scattered Clouds
10:53 PM 69.1 °F 62.1 °F 78% 29.91 in 10.0 mi SE 4.6 mph - N/A   Clear
11:53 PM 69.1 °F 62.1 °F 78% 29.91 in 10.0 mi SSE 6.9 mph - N/A   Partly Cloudy